TITAN 3C TRANSTAGE DEB, 26778

Orbit data source: Space-Track

TITAN 3C TRANSTAGE DEB, 26778 is space debris in HEO originally from a launch on Tue, 21 Dec 1965 UTC launched from the Air Force Eastern Test Range (AFETR). Debris objects in space refer to the collection of defunct objects orbiting the Earth. Examples of debris include non-operational satellites, rocket bodies, and fragments generated from explosions, collisions, or faulty payload assembly.

Loading next visibility...
Identifier
26778, 1965-108AW
Orbit
HEO
Country
Flag of USUS
Related business
Manufacturer
Unknown
Mission
Spacecraft
Bus & Motor
Unknown
Mass
Unknown
Launch date (UTC)
1965-12-21 (61 years ago)
Launch vehicle
Unknown
Launch site
Air Force Eastern Test Range (AFETR)
Object type
Payload
Rocket body
Debris
Shape & HBR
Unknown shape, 0.2 m
Radar Cross Section
Medium (>0.1 m² and <1 m²)

Expand to show TLE details & history
Last TLE update: 2 months ago

TLE from 2 months ago
0 TITAN 3C TRANSTAGE DEB
1 26778U 65108AW  26189.60063098 -.00000375  00000-0 -56303-2 0  9994
2 26778  27.9148  65.7028 6771023 249.1298 345.1016  2.65397592113421
Epoch: 2026-07-08T14:24Z
TLE epoch observation values (Epoch: 2026-07-08T14:24:54.516Z)
Latitude
4.4502°
Longitude
94.56054°
Altitude
4,133.907 km
Speed
7.599 km/s
True Right ascension
15h 49m 22s
True Declination
4° 25' 56"
Sunlit
Object was in daylight at epoch
Visualization orbit readout
Latitude
Unknown
Longitude
Unknown
Altitude
Unknown
Speed
Unknown
Apparent Right ascension
Unknown
Apparent Declination
Unknown
Sunlit
N/A
Visualization observer readout
Local Sidereal Time
17:06:21
Azimuth
Unknown
Elevation
Unknown
Doppler factor
Unknown
Orbital elements
Apogee altitude
30,584.535 km
Perigee altitude
738.401 km
Semi-major axis
22,039.605 km
Eccentricity
0.6771
Inclination
27.9148°
RAAN
65.7028°
Arg. of periapsis
249.1298°
True anomaly
281.17467°
Mean anomaly
345.1016°
Eccentric anomaly
320.34288°
Mean motion
0.66334 °/min
Orbital period
542.71 mins
BSTAR
-0.0056303
Loading maneuver chart data...
Computing Atmospheric mass density...

Documentation

Showing up to 5 results
|